Weather History for Canton, GA

Change the Weather History Date:

Saturday, February 2, 2013

  Actual Average (KGVL) Record (KGVL)
Temperature  
Mean Temperature 32 °F 43 °F  
Max Temperature 44 °F 52 °F 71 °F (1974)
Min Temperature 21 °F 34 °F 8 °F (1951)
Degree Days  
Heating Degree Days 32 22  
Month to date heating degree days 44  
Since 1 July heating degree days 1962  
Moisture  
Dew Point 12 °F    
Average Humidity 52    
Maximum Humidity 87    
Minimum Humidity 4    
Precipitation  
Precipitation 0.00 in 0.17 in 2.78 in (1973)
Month to date precipitation 0.35  
Year to date precipitation 5.38  
Snow  
Snow 0.00 in - - ()
Month to date snowfall  
Since 1 July snowfall  
Snow Depth -    
Sea Level Pressure  
Sea Level Pressure 30.24 in    
Wind  
Wind Speed 2 mph (SW)    
Max Wind Speed 9 mph    
Max Gust Speed 21 mph    
Visibility 9 miles    
Events Fog , Rain    
T = Trace of Precipitation, MM = Missing Value Source: NWS Daily Summary

Daily Weather History Graph

Daily Weather History Graph

Search for Another Location

Airport:

Trip Planner

Search our weather history database for the weather conditions in past years. The results will help you decide how hot, cold, wet, or windy it might be!

Date:

Astronomy

Feb. 02, 2013 Rise Set
Actual Time 7:34 AM EST 6:08 PM EST
Civil Twilight 7:08 AM EST 6:35 PM EST
Nautical Twilight 6:38 AM EST 7:05 PM EST
Astronomical Twilight 6:08 AM EST 7:34 PM EST
Moon No Moon Rise 11:04 AM EST (2/2)
Length of Visible Light 11h 27m
Length of Day
10h 34m
Waning Gibbous, 60% of the Moon is Illuminated
Feb 2
Waning Gibbous
Feb 3
Last Quarter
Feb 10
New
Feb 17
First Quarter
Feb 25
Full

Hourly Weather History & Observations

Time (EST) Temp. Windchill Dew Point Humidity Pressure Visibility Wind Dir Wind Speed Gust Speed Precip Events Conditions
12:15 AM 26.6 °F - 3.2 °F 37% 30.34 in 10.0 mi Calm Calm - N/A   Clear
12:35 AM 28.4 °F - 3.2 °F 34% 30.33 in 10.0 mi Calm Calm - N/A   Clear
12:55 AM 28.4 °F - 1.4 °F 31% 30.33 in 10.0 mi Calm Calm - N/A   Clear
1:15 AM 26.6 °F - 3.2 °F 37% 30.33 in 10.0 mi Calm Calm - N/A   Clear
1:35 AM 28.4 °F - 1.4 °F 31% 30.32 in 10.0 mi Calm Calm - N/A   Clear
1:55 AM 24.8 °F - 6.8 °F 46% 30.32 in 10.0 mi Calm Calm - N/A   Clear
2:15 AM 26.6 °F - 8.6 °F 47% 30.31 in 10.0 mi Calm Calm - N/A   Clear
2:35 AM 24.8 °F - 10.4 °F 54% 30.31 in 10.0 mi Calm Calm - N/A   Clear
2:55 AM 23.0 °F - 10.4 °F 59% 30.31 in 10.0 mi Calm Calm - N/A   Clear
3:15 AM 24.8 °F - 10.4 °F 54% 30.31 in 10.0 mi Calm Calm - N/A   Clear
3:35 AM 23.0 °F - 10.4 °F 59% 30.31 in 10.0 mi Calm Calm - N/A   Clear
3:55 AM 23.0 °F - 10.4 °F 59% 30.32 in 10.0 mi Calm Calm - N/A   Clear
4:15 AM 23.0 °F - 12.2 °F 63% 30.31 in 10.0 mi Calm Calm - N/A   Clear
4:35 AM 21.2 °F - 12.2 °F 68% 30.31 in 10.0 mi Calm Calm - N/A   Clear
4:55 AM 23.0 °F - 10.4 °F 59% 30.31 in 10.0 mi Calm Calm - N/A   Clear
5:15 AM 21.2 °F 16.4 °F 12.2 °F 68% 30.31 in 10.0 mi NNE 3.5 mph - N/A   Clear
5:35 AM 23.0 °F - 12.2 °F 63% 30.31 in 10.0 mi Calm Calm - N/A   Clear
5:55 AM 21.2 °F 14.9 °F 12.2 °F 68% 30.31 in 10.0 mi NNE 4.6 mph - N/A   Clear
6:15 AM 21.2 °F 16.4 °F 12.2 °F 68% 30.31 in 10.0 mi NNE 3.5 mph - N/A   Clear
6:35 AM 21.2 °F - 12.2 °F 68% 30.31 in 10.0 mi Calm Calm - N/A   Clear
6:55 AM 21.2 °F 16.4 °F 12.2 °F 68% 30.31 in 10.0 mi NE 3.5 mph - N/A   Clear
7:15 AM 21.2 °F - 12.2 °F 68% 30.32 in 10.0 mi Calm Calm - N/A   Clear
7:35 AM 23.0 °F - 10.4 °F 59% 30.32 in 10.0 mi Calm Calm - N/A   Clear
7:55 AM 23.0 °F - 12.2 °F 63% 30.32 in 10.0 mi Calm Calm - N/A   Clear
8:15 AM 23.0 °F 17.0 °F 12.2 °F 63% 30.31 in 10.0 mi East 4.6 mph - N/A   Clear
8:35 AM 24.8 °F 19.1 °F 12.2 °F 59% 30.31 in 10.0 mi East 4.6 mph - N/A   Clear
8:55 AM 26.6 °F 22.6 °F 10.4 °F 51% 30.31 in 10.0 mi ENE 3.5 mph - N/A   Clear
9:15 AM 30.2 °F 25.4 °F 8.6 °F 40% 30.31 in 10.0 mi East 4.6 mph - N/A   Clear
9:35 AM 32.0 °F 27.5 °F 5.0 °F 32% 30.30 in 10.0 mi East 4.6 mph - N/A   Clear
9:55 AM 32.0 °F 25.6 °F 3.2 °F 30% 30.30 in 10.0 mi ESE 6.9 mph - N/A   Clear
10:15 AM 33.8 °F 28.6 °F -0.4 °F 23% 30.30 in 10.0 mi ESE 5.8 mph - N/A   Clear
10:35 AM 35.6 °F 31.7 °F -5.8 °F 17% 30.31 in 10.0 mi East 4.6 mph - N/A   Clear
10:55 AM 37.4 °F - -7.6 °F 15% 30.31 in 10.0 mi Calm Calm - N/A   Clear
11:15 AM 37.4 °F - -5.8 °F 16% 30.31 in 10.0 mi Calm Calm - N/A   Clear
11:35 AM 41.0 °F 39.0 °F -13.0 °F 10% 30.31 in 10.0 mi NNE 3.5 mph - N/A   Scattered Clouds
11:55 AM 42.8 °F 41.1 °F -18.4 °F 7% 30.30 in 10.0 mi NW 3.5 mph - N/A   Scattered Clouds
12:15 PM 42.8 °F 41.1 °F -31.0 °F 4% 30.28 in 10.0 mi West 3.5 mph - N/A   Scattered Clouds
12:55 PM 44.6 °F - -25.6 °F 5% 30.24 in 10.0 mi Calm Calm - N/A   Mostly Cloudy
1:15 PM 44.6 °F - -34.6 °F 4% 30.21 in 10.0 mi Calm Calm - N/A   Mostly Cloudy
1:35 PM 42.8 °F - -25.6 °F 5% 30.20 in 10.0 mi Calm Calm - N/A   Mostly Cloudy
1:55 PM 42.8 °F 38.0 °F -13.0 °F 9% 30.20 in 10.0 mi SSW 8.1 mph - N/A   Mostly Cloudy
2:15 PM 42.8 °F 39.3 °F 1.4 °F 18% 30.18 in 10.0 mi SSW 5.8 mph - N/A   Overcast
2:35 PM 42.8 °F 38.6 °F 3.2 °F 19% 30.16 in 10.0 mi South 6.9 mph - N/A   Overcast
2:55 PM 44.6 °F - -0.4 °F 15% 30.15 in 10.0 mi Calm Calm - N/A   Overcast
3:15 PM 44.6 °F 43.1 °F 3.2 °F 18% 30.15 in 10.0 mi SW 3.5 mph - N/A   Overcast
3:35 PM 44.6 °F 40.2 °F 10.4 °F 25% 30.14 in 10.0 mi SW 8.1 mph - N/A   Light Drizzle
3:55 PM 44.6 °F 42.2 °F 14.0 °F 29% 30.12 in 10.0 mi SSW 4.6 mph - N/A   Overcast
4:15 PM 42.8 °F - 23.0 °F 46% 30.12 in 10.0 mi Calm Calm - N/A Rain Rain
4:35 PM 42.8 °F 37.5 °F 24.8 °F 49% 30.13 in 10.0 mi WSW 9.2 mph - N/A Rain Rain
4:55 PM 41.0 °F 35.8 °F 32.0 °F 70% 30.13 in 3.0 mi WSW 8.1 mph - N/A Rain Rain
5:15 PM 41.0 °F 38.0 °F 32.0 °F 70% 30.13 in 4.0 mi WSW 4.6 mph - N/A Rain Rain
5:35 PM 41.0 °F 38.0 °F 33.8 °F 76% 30.13 in 4.0 mi West 4.6 mph - N/A Rain Rain
5:55 PM 41.0 °F 36.4 °F 33.8 °F 76% 30.14 in 4.0 mi WSW 6.9 mph - N/A Rain Rain
6:15 PM 41.0 °F 38.0 °F 33.8 °F 76% 30.15 in 2.5 mi West 4.6 mph - N/A Rain Light Rain
6:35 PM 39.2 °F 33.0 °F 33.8 °F 81% 30.15 in 4.0 mi WSW 9.2 mph - N/A Rain Rain
6:55 PM 39.2 °F 34.2 °F 33.8 °F 81% 30.14 in 7.0 mi WSW 6.9 mph 20.7 mph N/A Rain Light Rain
7:15 PM 37.4 °F 31.4 °F 33.8 °F 87% 30.14 in 10.0 mi SW 8.1 mph - N/A   Overcast
7:35 PM 39.2 °F 35.9 °F 33.8 °F 81% 30.14 in 10.0 mi WSW 4.6 mph - N/A   Overcast
7:55 PM 39.2 °F - 33.8 °F 81% 30.14 in 5.0 mi Calm Calm - N/A   Haze
8:35 PM 37.4 °F 34.9 °F 33.8 °F 87% 30.13 in 10.0 mi WSW 3.5 mph - N/A   Overcast
9:15 PM 37.4 °F - 33.8 °F 87% 30.13 in 10.0 mi Calm Calm - N/A   Overcast
9:35 PM 37.4 °F - 33.8 °F 87% 30.13 in 4.0 mi Calm Calm - N/A   Haze
9:55 PM 37.4 °F - 32.0 °F 81% 30.13 in 7.0 mi Calm Calm - N/A   Scattered Clouds
10:15 PM 35.6 °F - 32.0 °F 87% 30.13 in 0.5 mi Calm Calm - N/A Fog Fog
10:35 PM 37.4 °F - 32.0 °F 81% 30.13 in 5.0 mi Calm Calm - N/A   Haze
10:55 PM 37.4 °F - 32.0 °F 81% 30.13 in 10.0 mi Calm Calm - N/A   Clear
11:15 PM 35.6 °F - 32.0 °F 87% 30.12 in 10.0 mi Calm Calm - N/A   Clear
11:35 PM 35.6 °F - 32.0 °F 87% 30.13 in 7.0 mi Calm Calm - N/A   Clear
11:55 PM 35.6 °F 31.7 °F 32.0 °F 87% 30.12 in 7.0 mi WNW 4.6 mph - N/A   Clear